N49GX KLUK-KCDI

Flight info

Callsign N49GX
Flight time 0h 36m
Altitude 17000
Route DCT SLLAM DCT OTMAN DCT
Aircraft PC12/L-SDFGRWY/S

Departure

Time 2026-05-08 22:39
Airport Cincinnati Municipal Airport Lunken Field (KLUK)

Arrival

Time 2026-05-08 23:15
Airport Cambridge Municipal Airport (KCDI)
Time Latitude Longitude Altitude Speed Heading
2026-05-08 22:16 39.09753 -84.42446 490 ft 0 kts 289°
2026-05-08 22:33 39.09755 -84.42449 490 ft 2 kts 347°
2026-05-08 22:33 39.09783 -84.42431 490 ft 0 kts 28°
2026-05-08 22:34 39.09799 -84.42417 488 ft 11 kts 42°
2026-05-08 22:35 39.09913 -84.42468 482 ft 20 kts 333°
2026-05-08 22:35 39.10003 -84.42524 479 ft 20 kts 337°
2026-05-08 22:35 39.10113 -84.42594 482 ft 21 kts 334°
2026-05-08 22:35 39.10229 -84.42667 476 ft 19 kts 333°
2026-05-08 22:36 39.10319 -84.42727 479 ft 22 kts 332°
2026-05-08 22:36 39.10406 -84.42700 475 ft 13 kts 64°
2026-05-08 22:36 39.10469 -84.42545 475 ft 24 kts 63°
2026-05-08 22:36 39.10540 -84.42375 477 ft 13 kts 60°
2026-05-08 22:37 39.10599 -84.42236 474 ft 2 kts 60°
2026-05-08 22:37 39.10637 -84.42144 474 ft 21 kts 63°
2026-05-08 22:37 39.10727 -84.41921 474 ft 26 kts 61°
2026-05-08 22:37 39.10805 -84.41734 478 ft 18 kts 61°
2026-05-08 22:38 39.10884 -84.41546 473 ft 27 kts 62°
2026-05-08 22:38 39.10962 -84.41342 474 ft 17 kts 85°
2026-05-08 22:38 39.10825 -84.41222 474 ft 31 kts 169°
2026-05-08 22:38 39.10509 -84.41348 482 ft 76 kts 200°
2026-05-08 22:39 39.09873 -84.41629 657 ft 115 kts 197°
2026-05-08 22:39 39.09008 -84.41208 896 ft 158 kts 136°
2026-05-08 22:39 39.08850 -84.39734 1211 ft 184 kts 76°
2026-05-08 22:39 39.09570 -84.38338 1569 ft 192 kts 54°
2026-05-08 22:40 39.10131 -84.37400 1762 ft 201 kts 54°
2026-05-08 22:40 39.10981 -84.35896 2006 ft 215 kts 54°
2026-05-08 22:40 39.11886 -84.34311 2250 ft 225 kts 54°
2026-05-08 22:40 39.12828 -84.32663 2504 ft 231 kts 54°
2026-05-08 22:41 39.13791 -84.31015 2769 ft 231 kts 54°
2026-05-08 22:41 39.14773 -84.29345 3021 ft 235 kts 53°
2026-05-08 22:41 39.15831 -84.27778 3262 ft 230 kts 41°
2026-05-08 22:41 39.16914 -84.26284 3513 ft 229 kts 52°
2026-05-08 22:42 39.17899 -84.24636 3843 ft 234 kts 53°
2026-05-08 22:42 39.18883 -84.22965 4218 ft 234 kts 53°
2026-05-08 22:42 39.19867 -84.21300 4610 ft 234 kts 54°
2026-05-08 22:42 39.20861 -84.19621 4990 ft 237 kts 51°
2026-05-08 22:43 39.22067 -84.18224 5329 ft 221 kts 32°
2026-05-08 22:43 39.23424 -84.17400 5070 ft 228 kts 17°
2026-05-08 22:43 39.24923 -84.16662 5264 ft 238 kts 18°
2026-05-08 22:43 39.26385 -84.15982 5457 ft 217 kts 20°
2026-05-08 22:44 39.27566 -84.14721 5973 ft 231 kts 59°
2026-05-08 22:44 39.27987 -84.12698 6404 ft 238 kts 84°
2026-05-08 22:44 39.28206 -84.10598 6896 ft 231 kts 85°
2026-05-08 22:44 39.28388 -84.08594 7326 ft 219 kts 86°
2026-05-08 22:45 39.28581 -84.06705 7688 ft 206 kts 77°
2026-05-08 22:45 39.29054 -84.05036 7972 ft 192 kts 64°
2026-05-08 22:45 39.29640 -84.03376 8317 ft 214 kts 65°
2026-05-08 22:45 39.30240 -84.01539 8770 ft 230 kts 66°
2026-05-08 22:46 39.30853 -83.99584 9289 ft 239 kts 66°
2026-05-08 22:46 39.31489 -83.97564 9851 ft 245 kts 65°
2026-05-08 22:46 39.32150 -83.95482 10217 ft 255 kts 65°
2026-05-08 22:46 39.32829 -83.93342 10589 ft 260 kts 65°
2026-05-08 22:47 39.33507 -83.91195 10958 ft 262 kts 64°
2026-05-08 22:47 39.34195 -83.89013 11335 ft 262 kts 64°
2026-05-08 22:47 39.34894 -83.86801 11716 ft 262 kts 63°
2026-05-08 22:47 39.35573 -83.84651 12088 ft 262 kts 63°
2026-05-08 22:48 39.36258 -83.82476 12474 ft 261 kts 63°
2026-05-08 22:48 39.36943 -83.80302 12813 ft 263 kts 62°
2026-05-08 22:48 39.37641 -83.78093 13012 ft 268 kts 62°
2026-05-08 22:48 39.38349 -83.75842 13199 ft 272 kts 62°
2026-05-08 22:49 39.39062 -83.73569 13385 ft 273 kts 62°
2026-05-08 22:49 39.40493 -83.69006 13754 ft 274 kts 62°
2026-05-08 22:49 39.41210 -83.66723 13893 ft 275 kts 62°
2026-05-08 22:50 39.41928 -83.64428 14012 ft 276 kts 62°
2026-05-08 22:50 39.42649 -83.62126 14133 ft 277 kts 62°
2026-05-08 22:50 39.43372 -83.59813 14252 ft 277 kts 62°
2026-05-08 22:50 39.44094 -83.57501 14374 ft 277 kts 62°
2026-05-08 22:51 39.44816 -83.55188 14495 ft 277 kts 62°
2026-05-08 22:51 39.45537 -83.52876 14610 ft 277 kts 62°
2026-05-08 22:51 39.46256 -83.50569 14742 ft 276 kts 62°
2026-05-08 22:51 39.46971 -83.48274 14860 ft 275 kts 62°
2026-05-08 22:52 39.47687 -83.45973 14977 ft 276 kts 62°
2026-05-08 22:52 39.48404 -83.43669 15107 ft 276 kts 62°
2026-05-08 22:52 39.49120 -83.41362 15227 ft 276 kts 62°
2026-05-08 22:52 39.49837 -83.39052 15349 ft 277 kts 62°
2026-05-08 22:53 39.50553 -83.36743 15476 ft 277 kts 62°
2026-05-08 22:53 39.51271 -83.34429 15601 ft 277 kts 62°
2026-05-08 22:53 39.51987 -83.32113 15727 ft 277 kts 62°
2026-05-08 22:53 39.52703 -83.29799 15848 ft 277 kts 62°
2026-05-08 22:54 39.53420 -83.27480 15973 ft 278 kts 62°
2026-05-08 22:54 39.54139 -83.25153 16099 ft 279 kts 62°
2026-05-08 22:54 39.54861 -83.22812 16226 ft 281 kts 62°
2026-05-08 22:54 39.55586 -83.20459 16355 ft 282 kts 62°
2026-05-08 22:55 39.56314 -83.18097 16483 ft 283 kts 62°
2026-05-08 22:55 39.57045 -83.15721 16612 ft 285 kts 62°
2026-05-08 22:55 39.57780 -83.13332 16744 ft 286 kts 62°
2026-05-08 22:55 39.58518 -83.10929 16875 ft 288 kts 62°
2026-05-08 22:56 39.59260 -83.08512 16999 ft 290 kts 62°
2026-05-08 22:56 39.60013 -83.06060 17027 ft 295 kts 62°
2026-05-08 22:56 39.60778 -83.03563 17015 ft 300 kts 62°
2026-05-08 22:56 39.61548 -83.01044 17009 ft 302 kts 62°
2026-05-08 22:57 39.62324 -82.98506 17008 ft 303 kts 62°
2026-05-08 22:57 39.63101 -82.95960 16998 ft 304 kts 62°
2026-05-08 22:57 39.63882 -82.93402 16997 ft 305 kts 62°
2026-05-08 22:57 39.64662 -82.90844 16998 ft 305 kts 62°
2026-05-08 22:58 39.65444 -82.88279 16999 ft 306 kts 62°
2026-05-08 22:58 39.66224 -82.85715 17000 ft 306 kts 62°
2026-05-08 22:58 39.67005 -82.83144 16996 ft 307 kts 62°
2026-05-08 22:58 39.67789 -82.80565 17000 ft 308 kts 62°
2026-05-08 22:59 39.68578 -82.77971 16900 ft 312 kts 62°
2026-05-08 22:59 39.69379 -82.75331 16645 ft 316 kts 62°
2026-05-08 22:59 39.70185 -82.72664 16392 ft 318 kts 63°
2026-05-08 22:59 39.70993 -82.69987 16142 ft 319 kts 63°
2026-05-08 23:00 39.71797 -82.67326 15860 ft 314 kts 63°
2026-05-08 23:00 39.72582 -82.64711 15557 ft 307 kts 63°
2026-05-08 23:00 39.73353 -82.62166 15253 ft 298 kts 62°
2026-05-08 23:00 39.74095 -82.59704 14950 ft 288 kts 62°
2026-05-08 23:01 39.74809 -82.57328 14652 ft 279 kts 62°
2026-05-08 23:01 39.75543 -82.54922 14372 ft 297 kts 63°
2026-05-08 23:01 39.76297 -82.52416 14093 ft 297 kts 63°
2026-05-08 23:01 39.77032 -82.49939 13806 ft 290 kts 63°
2026-05-08 23:02 39.77752 -82.47531 13492 ft 281 kts 63°
2026-05-08 23:02 39.78450 -82.45209 13157 ft 271 kts 63°
2026-05-08 23:02 39.79127 -82.42959 12841 ft 263 kts 65°
2026-05-08 23:02 39.79776 -82.40787 12512 ft 252 kts 65°
2026-05-08 23:03 39.80394 -82.38715 12188 ft 239 kts 65°
2026-05-08 23:03 39.80981 -82.36752 11860 ft 227 kts 65°
2026-05-08 23:03 39.81537 -82.34890 11532 ft 214 kts 65°
2026-05-08 23:03 39.82056 -82.33147 11205 ft 199 kts 66°
2026-05-08 23:04 39.82539 -82.31526 10876 ft 186 kts 66°
2026-05-08 23:04 39.83000 -82.29987 10599 ft 186 kts 66°
2026-05-08 23:04 39.83498 -82.28337 10370 ft 206 kts 67°
2026-05-08 23:04 39.84041 -82.26515 10176 ft 227 kts 68°
2026-05-08 23:05 39.84634 -82.24511 9978 ft 247 kts 68°
2026-05-08 23:05 39.85279 -82.22340 9781 ft 266 kts 68°
2026-05-08 23:05 39.85968 -82.20019 9558 ft 282 kts 68°
2026-05-08 23:05 39.86682 -82.17608 9320 ft 287 kts 69°
2026-05-08 23:06 39.87389 -82.15221 9065 ft 276 kts 69°
2026-05-08 23:06 39.88059 -82.12963 8728 ft 256 kts 69°
2026-05-08 23:06 39.88663 -82.10920 8348 ft 227 kts 69°
2026-05-08 23:06 39.89191 -82.09131 7955 ft 202 kts 69°
2026-05-08 23:07 39.89748 -82.07255 7593 ft 235 kts 69°
2026-05-08 23:07 39.90330 -82.05280 7253 ft 232 kts 69°
2026-05-08 23:07 39.90906 -82.03330 6898 ft 231 kts 70°
2026-05-08 23:07 39.91474 -82.01402 6504 ft 220 kts 70°
2026-05-08 23:08 39.92021 -81.99549 6093 ft 215 kts 70°
2026-05-08 23:08 39.92554 -81.97737 5676 ft 214 kts 70°
2026-05-08 23:08 39.93079 -81.95953 5306 ft 209 kts 70°
2026-05-08 23:08 39.93595 -81.94198 5003 ft 206 kts 70°
2026-05-08 23:09 39.93847 -81.92407 4675 ft 201 kts 102°
2026-05-08 23:09 39.93500 -81.90661 4365 ft 199 kts 112°
2026-05-08 23:09 39.93089 -81.88935 4012 ft 200 kts 112°
2026-05-08 23:09 39.92738 -81.87186 3671 ft 199 kts 108°
2026-05-08 23:10 39.92451 -81.85468 3322 ft 189 kts 105°
2026-05-08 23:10 39.92177 -81.83832 2955 ft 183 kts 105°
2026-05-08 23:10 39.91901 -81.82221 2605 ft 183 kts 106°
2026-05-08 23:10 39.91625 -81.80606 2249 ft 182 kts 106°
2026-05-08 23:11 39.91350 -81.79013 1969 ft 178 kts 106°
2026-05-08 23:11 39.91081 -81.77469 1979 ft 176 kts 104°
2026-05-08 23:11 39.90868 -81.75907 1906 ft 179 kts 86°
2026-05-08 23:11 39.91198 -81.74394 2122 ft 173 kts 68°
2026-05-08 23:12 39.91730 -81.72929 2388 ft 184 kts 62°
2026-05-08 23:12 39.92313 -81.71423 2657 ft 186 kts 63°
2026-05-08 23:12 39.92857 -81.69922 2902 ft 181 kts 64°
2026-05-08 23:12 39.93406 -81.68393 3021 ft 194 kts 64°
2026-05-08 23:13 39.93967 -81.66829 3005 ft 183 kts 64°
2026-05-08 23:13 39.94482 -81.65306 2852 ft 184 kts 70°
2026-05-08 23:13 39.94746 -81.63688 2254 ft 180 kts 86°
2026-05-08 23:13 39.94840 -81.62096 1823 ft 167 kts 86°
2026-05-08 23:14 39.95009 -81.60711 1507 ft 147 kts 74°
2026-05-08 23:14 39.95451 -81.59639 1192 ft 124 kts 48°
2026-05-08 23:14 39.96077 -81.58977 1039 ft 112 kts 33°
2026-05-08 23:14 39.96747 -81.58407 915 ft 115 kts 32°
2026-05-08 23:15 39.97411 -81.57844 803 ft 108 kts 33°
2026-05-08 23:15 39.97933 -81.57396 806 ft 63 kts 31°
2026-05-08 23:15 39.98132 -81.57250 808 ft 6 kts 300°